Location: Bothwell
(41.7170°N, 112.2589°W)
Time: 02:46:29
(UTC+00:00)

Tiros 1 - Pass Details

Date: 11 May 2026
Orbit: 618 x 649 km, 48.4° (Epoch: 6 June)

Event Time Altitude Azimuth Distance (km) Brightness Sun altitude
Rises 07:29:43 0° 207° (SSW) 2,905 - -30.4°
Reaches altitude 10° 07:32:18 10° 195° (SSW) 1,995 - -30.3°
Maximum altitude 07:36:09 27° 138° (SE) 1,201 - -30.3°
Drops below altitude 10° 07:40:00 10° 80° (E) 1,989 - -30.3°
Exits shadow 07:40:24 - 78° (ENE) 2,120 10.0 -30.3°
Sets 07:42:34 0° 69° (ENE) 2,894 10.8 -30.2°
